Regional Weather Roundup
Issued by NWS

Home | Current Version | Previous Version | Graphics & Text | Print | Product List | Glossary On
Versions: 1 2 3 4 5 6 7 8 9 10 11 12 13 14 15 16 17 18 19 20 21 22 23 24 25 26 27 28 29 30 31 32 33 34 35 36 37 38 39 40 41 42 43 44 45 46 47 48 49 50
000
ASUS43 KIND 291809
RWRIN

WEATHER ROUNDUP FOR INDIANA
NATIONAL WEATHER SERVICE INDIANAPOLIS IN
200 PM EDT MON JUN 29 2015

NOTE: "FAIR" INDICATES FEW OR NO CLOUDS BELOW 12,000 FEET WITH NO
SIGNIFICANT WEATHER AND/OR OBSTRUCTIONS TO VISIBILITY.

* - STATION DOES NOT REPORT WEATHER SUCH AS PRECIPITATION OR FOG.

+ - STATION NOT QUALITY CONTROLLED BY THE NATIONAL WEATHER SERVICE.
    USE DATA WITH CAUTION...ESPECIALLY DEWPOINT AND RELATIVE
    HUMIDITY OBSERVATIONS.

INZ001>003-010>013-019-020-291900-
NORTHWEST INDIANA

CITY           SKY/WX    TMP DP  RH WIND       PRES   REMARKS
GARY /AIRPORT/ CLOUDY   N/A N/A N/A E8        29.82S
KNOX *+        CLOUDY    64  64 100 NE5       29.82S
LA PORTE +     CLOUDY    68  66  93 SE6       29.84S
                                      6HR PCP:  0.34;

MICHIGAN CITY+ CLOUDY    68  64  88 S3        29.83S
MONTICELLO +   CLOUDY    71  65  80 NE3       29.80S
6HR MIN TEMP:  63; 6HR MAX TEMP:  71;

RENSSELAER +   CLOUDY    70  64  83 NE3       29.82S
VALPARAISO     LGT RAIN  66  64  93 SE5       29.83S
6HR MIN TEMP:  64; 6HR MAX TEMP:  67; 6HR PCP:  0.14;


$$

LMZ046-743>745-291900-
SOUTHERN LAKE MICHIGAN

STATION/POSITION TIME  TEMP    WIND        PRES    WAVE
                       AIR SEA DIR/SP/G            HT
                 (UTC) (F)     (DEG/KT/KT) (MB)    (FT)
BURNS HARBOR     1700   66      30/  7/ 12 1010.5S
MICHIGAN CITY    1800   67     120/  5/  6   N/A
5NW MICH CITY    1800   67 65  160/  2/  2   N/A     0

$$

INZ004-005-014>016-021>024-291900-
NORTH CENTRAL INDIANA

CITY           SKY/WX    TMP DP  RH WIND       PRES   REMARKS
ELKHART        LGT RAIN  64  64 100 E5        29.85S
GOSHEN         LGT RAIN  65  60  84 SE10      29.85S
6HR MIN TEMP:  65; 6HR MAX TEMP:  70; 6HR PCP:  0.01;

LOGANSPORT +   CLOUDY    72  59  64 NE5       29.83R
PERU/GRISSOM   CLOUDY    68  63  83 E8        29.81S
6HR MIN TEMP:  63; 6HR MAX TEMP:  69; 6HR PCP: TRACE;

ROCHESTER +    CLOUDY    68  63  83 SE6       29.84R
SOUTH BEND     CLOUDY    67  63  87 SE8       29.84F
6HR MIN TEMP:  66; 6HR MAX TEMP:  68; 6HR PCP:  0.33;

WARSAW +         N/A     64  61  88 E7        29.85S

$$

INZ006>009-017-018-025>027-291900-
NORTHEAST INDIANA

CITY           SKY/WX    TMP DP  RH WIND       PRES   REMARKS
ANGOLA *+      PTSUNNY   70  59  68 S13       29.86S
AUBURN +       CLOUDY    64  57  77 SE7       29.87F
FORT WAYNE     CLOUDY    64  59  83 E10       29.85F
6HR MIN TEMP:  62; 6HR MAX TEMP:  65; 6HR PCP:  0.04;

HUNTINGTON +   CLOUDY    64  60  87 E6        29.84S
6HR MIN TEMP:  62; 6HR MAX TEMP:  65; 6HR PCP:  0.01;


$$

INZ028-029-035-036-043>045-051>053-291900-
WEST CENTRAL INDIANA

CITY           SKY/WX    TMP DP  RH WIND       PRES   REMARKS
CRAWFORDSVL +  CLOUDY    66  63  88 CALM      29.82S FOG
6HR MIN TEMP:  62; 6HR MAX TEMP:  66;

GREENCASTLE +  CLOUDY    68  63  83 CALM      29.82S
LAFAYETTE      CLOUDY    71  62  73 CALM      29.80S
6HR MIN TEMP:  65; 6HR MAX TEMP:  72;

TERRE HAUTE    PTSUNNY   75  66  73 W9        29.81R
6HR MIN TEMP:  66; 6HR MAX TEMP:  76; 6HR PCP:  0.01;


$$

INZ030>032-037>040-046>048-054>057-064-065-291900-
CENTRAL INDIANA

CITY           SKY/WX    TMP DP  RH WIND       PRES   REMARKS
ANDERSON       CLOUDY    68  57  68 CALM      29.83S
CP ATTERBURY + CLOUDY    73  68  83 N10       29.81S HAZE
COLUMBUS       PTSUNNY   75  66  73 NW5       29.80F
FISHERS *+     CLOUDY    68  66  94 W3        29.82R
FRANKFORT +    PTSUNNY   72  64  74 CALM      29.83S
GREENWOOD *+   CLOUDY    68  64  88 CALM      29.82S
INDIANAPOLIS   CLOUDY    69  64  84 W3        29.81R
6HR MIN TEMP:  63; 6HR MAX TEMP:  70; 6HR PCP:  0.03;

-EAGLE CREEK   CLOUDY    69  64  84 W3        29.81S
6HR MIN TEMP:  63; 6HR MAX TEMP:  70; 6HR PCP:  0.01;

KOKOMO *+      PTSUNNY   70  63  78 E3        29.81S
6HR MIN TEMP:  63; 6HR MAX TEMP:  70;

MARION +       CLOUDY    67  60  79 E3        29.83S
MT COMFORT *+  CLOUDY    68 N/A N/A SW3       29.82S
SHELBYVILLE    CLOUDY    70  66  87 W6        29.81R
6HR MIN TEMP:  63; 6HR MAX TEMP:  70; 6HR PCP:  0.24;

ZIONSVILLE +   PTSUNNY   71  62  71 CALM      29.83S
6HR MIN TEMP:  64; 6HR MAX TEMP:  71;


$$

INZ033-034-041-042-049-050-058-059-291900-
EAST CENTRAL INDIANA

CITY           SKY/WX    TMP DP  RH WIND       PRES   REMARKS
MUNCIE         CLOUDY    68  60  75 CALM      29.82S
6HR MIN TEMP:  62; 6HR MAX TEMP:  69; 6HR PCP: TRACE;


$$

INZ060-061-067>069-081>083-085>088-291900-
SOUTHWEST INDIANA

CITY           SKY/WX    TMP DP  RH WIND       PRES   REMARKS
EVANSVILLE     MOSUNNY   82  66  58 W13       29.83S
6HR MIN TEMP:  70; 6HR MAX TEMP:  82;

HUNTINGBURG *+ PTSUNNY   81  66  61 W14       29.83S
6HR MIN TEMP:  68; 6HR MAX TEMP:  81;

WASHINGTON +   PTSUNNY   77  65  67 W10G17    29.82R
6HR MIN TEMP:  67; 6HR MAX TEMP:  77;


$$

INZ062-063-066-070>080-084-089>092-291900-
SOUTH CENTRAL AND SOUTHEAST INDIANA

CITY           SKY/WX    TMP DP  RH WIND       PRES   REMARKS
BLOOMINGTON    MOSUNNY   76  66  71 W12       29.81S
6HR MIN TEMP:  65; 6HR MAX TEMP:  76; 6HR PCP:  0.01;

MADISON *+     MOSUNNY   79  64  61 SW9G17    29.83F
NORTH VERNON + CLOUDY    75  66  73 SW8       29.82S
SEYMOUR +      PTSUNNY   77  68  73 W12G17    29.81S

$$



USA.gov is the U.S. government's official web portal to all federal, state and local government web resources and services.